This is the latest recevied weather packets stored in our database for station/object WB5NHL-13. If no packets are shown the sender has not sent any weather packets the latest 10 day(s).
| Time | Temp. | Humidity | Pressure | Rain* | Wind** | Luminosity | Snow |
|---|---|---|---|---|---|---|---|
| 1777685743 | - | - | 1011.9 hPa | 0 mm | - | - | - |
| 1777685146 | 18.33° C | 88% | 1011.8 hPa | 0 mm | - | - | - |
| 1777679139 | 20° C | 84% | 1010.5 hPa | 0 mm | - | - | - |
| 1777677925 | 20° C | 82% | 1010.3 hPa | 0 mm | - | - | - |
| 1777673129 | 20.56° C | 79% | 1011.1 hPa | 0 mm | - | - | - |
| 1777667116 | 19.44° C | 80% | 1011.3 hPa | 0 mm | - | - | - |
| 1777665928 | 21.11° C | 77% | 1011.7 hPa | 0 mm | - | - | - |
| 1777664118 | 20° C | 79% | 1012.3 hPa | 0 mm | - | - | - |
| 1777656320 | 17.22° C | 81% | 1012.9 hPa | 0 mm | - | - | - |
| 1777654529 | 18.89° C | 76% | 1013.1 hPa | 0 mm | - | - | - |
| 1777652720 | 18.89° C | 77% | 1012.8 hPa | 0 mm | - | - | - |
| 1777648522 | 18.33° C | 75% | 1013.4 hPa | 0 mm | - | - | - |
| 1777646751 | 17.22° C | 76% | 1013.6 hPa | 0 mm | - | - | - |
| 1777641321 | 16.11° C | 78% | 1012.9 hPa | 0 mm | - | - | - |
| 1777640744 | 16.11° C | 76% | 1012.8 hPa | 0 mm | - | - | - |
| 1777635929 | 16.67° C | 73% | 1011.8 hPa | 0 mm | - | - | - |
| 1777634121 | 16.67° C | 73% | 1011.8 hPa | 0 mm | - | - | - |
| 1777633524 | 16.67° C | 72% | 1011.9 hPa | 0 mm | - | - | - |
| 1777627536 | 17.78° C | 79% | 1011.2 hPa | 0 mm | - | - | - |
| 1777623338 | 18.33° C | 99% | 1011 hPa | 0 mm | - | - | - |
| 1777621521 | 18.33° C | 99% | 1010.6 hPa | 0 mm | - | - | - |
| 1777613152 | - | - | 1010.8 hPa | 0 mm | - | - | - |
| 1777611920 | 18.89° C | 96% | 1010.9 hPa | 0 mm | - | - | - |
| 1777609518 | 19.44° C | 93% | 1010.9 hPa | 0 mm | - | - | - |
| 1777606547 | 20° C | 90% | 1010.7 hPa | 0 mm | - | - | - |
* Rain latest hour (hover to see other rain measurements)
** Current wind speed in m/s (hover to see current wind gust speed)